[[{"header":{"parameterUnit":"m.s-1","parameterCategory":1,"la1":30.2991,"la2":30.254,"lo1":-89.0895,"lo2":-89.0444,"dy":0.0017,"dx":0.0017,"nx":28,"ny":28,"refTime":"2024-05-03T03:00:00:Z","depth":0,"parameterNumber":2,"parameterNumberName":"U-component_of_WINDS"},"data":[0,0,0,0,0,0,0,0,0,0,0,0,0,0,0,0,0,0,0,0,0,0,0,0,0,0,0,0,0,0,0,0,0,0,0,0,0,0,0,0,0,0,0,0,0,0,0,0,0,0,0,0,0,0,0,0,0,0,-1.0539,-1.0539,0,-1.0533,-1.0533,-1.0533,-1.0506,-1.0506,-1.0505,-1.0504,-1.05,-1.05,-1.0501,0,0,0,0,0,0,0,0,0,0,0,0,0,-1.0527,-1.0527,-1.0539,-1.0539,-1.0538,-1.0533,-1.0533,-1.0533,-1.0506,-1.0505,-1.0505,-1.0504,-1.05,-1.05,-1.0501,0,0,0,0,0,0,0,0,0,0,0,0,0,-1.0528,-1.0527,-1.0539,-1.0524,-1.0523,-1.0533,-1.0533,-1.0533,-1.0506,-1.0505,-1.0505,-1.0504,-1.0499,-1.05,-1.0501,-1.0525,0,0,-1.0503,-1.0503,0,0,0,0,0,0,0,0,-1.0528,-1.0528,-1.0527,-1.0525,-1.0524,-1.0519,-1.0527,-1.053,-1.0507,-1.0513,-1.0504,-1.0503,-1.0507,-1.0507,-1.0508,-1.0525,-1.0524,-1.0503,-1.0504,-1.0504,-1.0504,0,0,0,0,0,0,0,-1.0528,-1.0528,-1.0537,-1.0527,-1.0525,-1.0519,-1.0518,-1.0528,-1.0516,-1.0512,-1.051,-1.051,-1.0506,-1.0508,-1.0508,-1.0524,-1.0503,-1.0504,-1.0504,-1.0505,-1.056,-1.0561,0,0,0,0,0,0,-1.0529,-1.0528,-1.0537,-1.0536,-1.0523,-1.052,-1.0519,-1.0522,-1.0515,-1.0513,-1.0511,-1.0509,-1.0507,-1.0507,-1.0508,-1.0535,-1.0504,-1.0505,-1.0505,-1.0559,-1.056,-1.0561,0,0,0,0,0,0,-1.0529,-1.053,-1.0537,-1.0532,-1.0532,-1.0521,-1.0525,-1.0522,-1.0524,-1.0514,-1.0512,-1.0514,-1.0506,-1.0507,-1.0521,-1.0535,-1.0505,-1.0506,-1.0558,-1.0559,-1.0561,-1.0591,0,0,0,0,0,0,-1.0529,-1.053,-1.0539,-1.0532,-1.0533,-1.055,-1.0526,-1.0523,-1.0525,-1.0522,-1.0517,-1.0515,-1.0506,-1.052,-1.0521,-1.0535,-1.0506,-1.0557,-1.0559,-1.056,-1.0588,-1.0593,-1.0597,0,0,0,0,0,-1.0529,-1.0548,-1.054,-1.0541,-1.0543,-1.055,-1.0551,-1.0539,-1.0526,-1.0535,-1.0529,-1.0515,-1.0533,-1.0521,-1.0523,-1.0537,-1.0556,-1.0558,-1.056,-1.0586,-1.0592,-1.0597,0,0,0,0,0,0,-1.0557,-1.0547,-1.0537,-1.0555,-1.0554,-1.0546,-1.0556,-1.0545,-1.0548,-1.0545,-1.0531,-1.053,-1.0546,-1.0543,-1.053,-1.056,-1.0542,-1.0545,-1.0561,-1.0567,-1.0571,-1.0571,-1.0507,0,0,0,0,0,-1.0565,-1.0572,-1.0563,-1.0579,-1.0579,-1.0568,-1.0571,-1.0562,-1.056,-1.0559,-1.0554,-1.0554,-1.0559,-1.0563,-1.0567,-1.0588,-1.0587,-1.0599,-1.0603,-1.0607,-1.0609,-1.062,-1.0626,-1.0569,-1.0569,-1.0569,0,0,-1.0582,-1.0578,-1.0583,-1.0584,-1.0582,-1.059,-1.0568,-1.0576,-1.0582,-1.0561,-1.0573,-1.057,-1.0568,-1.0586,-1.0593,-1.0584,-1.0625,-1.061,-1.0613,-1.0613,-1.0623,-1.0629,-1.0633,-1.0571,-1.057,-1.057,0,0,-1.0617,-1.0614,-1.0628,-1.0626,-1.0623,-1.0616,-1.0619,-1.0613,-1.061,-1.0622,-1.0607,-1.0614,-1.0623,-1.0622,-1.0623,-1.0659,-1.0647,-1.0661,-1.0683,-1.0694,-1.0699,-1.0703,-1.0715,-1.072,-1.0663,-1.0663,-1.0663,0,-1.0639,-1.0649,-1.0636,-1.0646,-1.0647,-1.0628,-1.0642,-1.0641,-1.064,-1.0642,-1.0631,-1.0643,-1.0641,-1.0658,-1.0666,-1.0668,-1.0671,-1.0661,-1.0699,-1.0703,-1.0706,-1.0718,-1.0723,-1.0665,-1.0665,-1.0665,-1.0664,0,-1.0676,-1.0684,-1.0695,-1.0694,-1.0697,-1.0709,-1.0697,-1.0702,-1.0693,-1.0687,-1.07,-1.0696,-1.07,-1.0703,-1.0695,-1.072,-1.0714,-1.0702,-1.0683,-1.0714,-1.0724,-1.0729,-1.0667,-1.0667,-1.0666,-1.0666,0,0,-1.0729,-1.072,-1.0725,-1.0724,-1.072,-1.0726,-1.0737,-1.074,-1.0744,-1.0744,-1.0753,-1.0762,-1.0751,-1.0752,-1.0743,-1.0753,-1.0781,-1.0739,-1.0739,-1.0747,-1.0809,-1.0818,-1.0823,-1.0773,-1.0774,-1.0775,-1.0809,0,-1.0762,-1.078,-1.0769,-1.0789,-1.0796,-1.0778,-1.0788,-1.0786,-1.0781,-1.0787,-1.0781,-1.0787,-1.0772,-1.0772,-1.0781,-1.0776,-1.0793,-1.0773,-1.0782,-1.0782,-1.0783,-1.0829,-1.0839,-1.0871,-1.0813,-1.0814,-1.0814,0,-1.0803,-1.0805,-1.0826,-1.082,-1.0823,-1.0832,-1.0834,-1.0839,-1.0837,-1.0833,-1.0835,-1.0823,-1.0834,-1.0816,-1.0831,-1.0818,-1.0821,-1.0819,-1.082,-1.082,-1.08,-1.0831,-1.0881,-1.0886,-1.0821,-1.082,-1.082,0,-1.084,-1.0847,-1.086,-1.0861,-1.0855,-1.0861,-1.0859,-1.0857,-1.0859,-1.0861,-1.0863,-1.0866,-1.0868,-1.0872,-1.0862,-1.0849,-1.0878,-1.0859,-1.0875,-1.0876,-1.0882,-1.0882,-1.0934,-1.0884,-1.0884,-1.0884,-1.0884,0,-1.0878,-1.0891,-1.0877,-1.0885,-1.0899,-1.0886,-1.0901,-1.0897,-1.0895,-1.0903,-1.0888,-1.0895,-1.0882,-1.0888,-1.0881,-1.0895,-1.0896,-1.0893,-1.0891,-1.0894,-1.0894,-1.0896,-1.0893,-1.0885,-1.0885,-1.0885,-1.0884,0,-1.0921,-1.0911,-1.0925,-1.0918,-1.0917,-1.0928,-1.0922,-1.093,-1.0924,-1.0933,-1.0935,-1.0926,-1.0932,-1.0923,-1.0928,-1.0923,-1.0942,-1.0937,-1.0943,-1.0941,-1.0958,-1.0956,-1.1012,-1.1019,-1.0965,-1.0966,-1.0966,0,-1.0946,-1.0956,-1.095,-1.0954,-1.0953,-1.0959,-1.0962,-1.0949,-1.0953,-1.0952,-1.096,-1.0965,-1.0969,-1.098,-1.0974,-1.0978,-1.0973,-1.0992,-1.0973,-1.0977,-1.0973,-1.0973,-1.0974,-1.0996,-1.0997,-1.0997,-1.0998,0,-1.0992,-1.0987,-1.0991,-1.0994,-1.0997,-1.0999,-1.0999,-1.1003,-1.099,-1.0995,-1.1002,-1.1004,-1.101,-1.1016,-1.1018,-1.1017,-1.1005,-1.1004,-1.1007,-1.1011,-1.1014,-1.1013,-1.0953,-1.1002,-1.1002,-1.1001,-1.1001,-1.1001,-1.1027,-1.1035,-1.1032,-1.1037,-1.1036,-1.1037,-1.1044,-1.1039,-1.1044,-1.1047,-1.104,-1.1048,-1.1046,-1.1049,-1.1049,-1.1055,-1.1047,-1.1053,-1.1054,-1.1056,-1.1058,-1.1013,-1.1056,-1.1056,-1.1055,-1.1055,-1.1055,0,-1.1072,-1.1069,-1.1074,-1.1075,-1.1079,-1.1068,-1.1068,-1.1072,-1.108,-1.1079,-1.1083,-1.109,-1.1096,-1.109,-1.1095,-1.1101,-1.1096,-1.1103,-1.1102,-1.1102,-1.1065,-1.1061,-1.1107,-1.1107,-1.1107,-1.1107,-1.1107,-1.1107,-1.1096,-1.1109,-1.1103,-1.1116,-1.1113,-1.1121,-1.1122,-1.1123,-1.1122,-1.1131,-1.1135,-1.1131,-1.1129,-1.1133,-1.1138,-1.1136,-1.1138,-1.1147,-1.1144,-1.1109,-1.1104,-1.11,-1.1096,-1.1148,-1.1148,-1.1179,-1.118,-1.118]},{"header":{"parameterUnit":"m.s-1","parameterCategory":1,"la1":30.2991,"la2":30.254,"lo1":-89.0895,"lo2":-89.0444,"dy":0.0017,"dx":0.0017,"nx":28,"ny":28,"refTime":"2024-05-03T03:00:00:Z","depth":0,"parameterNumber":3,"parameterNumberName":"V-component_of_WINDS"},"data":[0,0,0,0,0,0,0,0,0,0,0,0,0,0,0,0,0,0,0,0,0,0,0,0,0,0,0,0,0,0,0,0,0,0,0,0,0,0,0,0,0,0,0,0,0,0,0,0,0,0,0,0,0,0,0,0,0,0,3.0572,3.0572,0,3.0553,3.0552,3.0552,3.0506,3.0505,3.0504,3.0503,3.0484,3.0484,3.0485,0,0,0,0,0,0,0,0,0,0,0,0,0,3.057,3.0571,3.0572,3.0572,3.0572,3.0553,3.0552,3.0552,3.0506,3.0505,3.0504,3.0503,3.0484,3.0484,3.0485,0,0,0,0,0,0,0,0,0,0,0,0,0,3.0563,3.0571,3.0572,3.0546,3.0544,3.0553,3.0552,3.0552,3.0506,3.0505,3.0503,3.0502,3.0484,3.0484,3.0485,3.0517,0,0,3.0487,3.0487,0,0,0,0,0,0,0,0,3.0564,3.0563,3.055,3.0548,3.0545,3.053,3.0545,3.0541,3.0507,3.0521,3.0503,3.0501,3.05,3.05,3.0499,3.0517,3.0516,3.0487,3.0487,3.0487,3.0487,0,0,0,0,0,0,0,3.0564,3.0564,3.0564,3.055,3.0547,3.0536,3.0533,3.0544,3.0519,3.0519,3.0516,3.0514,3.0499,3.0499,3.0498,3.0515,3.0487,3.0487,3.0487,3.0488,3.056,3.0561,0,0,0,0,0,0,3.0568,3.0565,3.0565,3.0564,3.0551,3.0537,3.0534,3.0537,3.0519,3.0515,3.0515,3.0512,3.0498,3.0498,3.0498,3.0535,3.0487,3.0488,3.0488,3.0558,3.056,3.0562,0,0,0,0,0,0,3.0568,3.0569,3.0566,3.0563,3.0562,3.0539,3.0542,3.0537,3.0537,3.0516,3.0511,3.052,3.0497,3.0497,3.0513,3.0534,3.0488,3.0489,3.0556,3.0559,3.0561,3.0611,0,0,0,0,0,0,3.0569,3.0569,3.0581,3.0564,3.0562,3.0581,3.0543,3.0538,3.0538,3.0533,3.0519,3.0515,3.0496,3.0512,3.0514,3.0534,3.0489,3.0554,3.0557,3.056,3.0607,3.0614,3.0621,0,0,0,0,0,3.0569,3.0596,3.0582,3.0582,3.0577,3.0583,3.0582,3.0559,3.054,3.0552,3.0538,3.0515,3.0531,3.0514,3.0515,3.0536,3.0553,3.0556,3.056,3.0604,3.0613,3.0621,0,0,0,0,0,0,3.0616,3.0593,3.0577,3.0599,3.0593,3.0575,3.0589,3.057,3.0569,3.0565,3.0537,3.0534,3.0555,3.0547,3.0528,3.0567,3.0538,3.0542,3.0572,3.058,3.0587,3.0588,3.0489,0,0,0,0,0,3.0629,3.0635,3.0615,3.0637,3.0634,3.0613,3.0614,3.0598,3.059,3.0588,3.0575,3.0569,3.0573,3.0576,3.0578,3.0606,3.0602,3.0621,3.0627,3.0633,3.0637,3.0652,3.066,3.0573,3.0573,3.0573,0,0,3.0656,3.0644,3.065,3.0646,3.0639,3.0647,3.0611,3.062,3.0626,3.0589,3.0604,3.0595,3.0586,3.0609,3.0618,3.0603,3.066,3.0638,3.0642,3.0643,3.0656,3.0664,3.0672,3.0576,3.0575,3.0575,0,0,3.0709,3.0701,3.0718,3.0712,3.0702,3.0688,3.0692,3.0677,3.0669,3.0684,3.0656,3.0663,3.067,3.0665,3.0663,3.0716,3.0695,3.0717,3.0753,3.0768,3.0775,3.0781,3.08,3.0807,3.0721,3.0721,3.0721,0,3.0744,3.0754,3.073,3.0741,3.0741,3.0707,3.0725,3.0721,3.0713,3.0713,3.0696,3.0705,3.0697,3.0718,3.0731,3.073,3.0735,3.0719,3.0776,3.0781,3.0787,3.0805,3.0812,3.0724,3.0724,3.0724,3.0723,0,3.0798,3.0805,3.0821,3.0814,3.0815,3.0829,3.0808,3.0812,3.0795,3.0783,3.0798,3.0787,3.0787,3.0791,3.0775,3.081,3.0801,3.0781,3.0751,3.0798,3.0815,3.0821,3.0728,3.0727,3.0726,3.0726,0,0,3.088,3.0859,3.0866,3.0862,3.0849,3.0855,3.0869,3.0868,3.0873,3.0868,3.088,3.0886,3.0867,3.0866,3.0849,3.0862,3.0905,3.084,3.0839,3.0853,3.0944,3.096,3.0969,3.0891,3.0892,3.0893,3.0945,0,3.093,3.0952,3.0931,3.0957,3.0964,3.0933,3.0945,3.0939,3.0928,3.0932,3.092,3.0926,3.09,3.0899,3.091,3.0898,3.0923,3.0893,3.0902,3.0902,3.0905,3.0977,3.0994,3.1043,3.0951,3.0952,3.0953,0,3.0992,3.0991,3.1018,3.1004,3.1006,3.1017,3.1016,3.102,3.1013,3.1004,3.1003,3.0982,3.0995,3.0966,3.0984,3.0964,3.0967,3.0961,3.0962,3.0963,3.0931,3.098,3.1058,3.1066,3.0963,3.0962,3.0962,0,3.105,3.1055,3.1072,3.107,3.1054,3.1063,3.1057,3.1048,3.1049,3.1048,3.1049,3.1049,3.105,3.1051,3.1031,3.1012,3.1052,3.1021,3.1045,3.1046,3.1055,3.1055,3.1136,3.1056,3.1056,3.1056,3.1056,0,3.1109,3.1127,3.1098,3.1108,3.1128,3.1103,3.1123,3.1114,3.1106,3.1115,3.1088,3.1097,3.107,3.1077,3.1062,3.1079,3.1079,3.1073,3.1069,3.1075,3.1076,3.1077,3.1073,3.1058,3.1057,3.1057,3.1057,0,3.1178,3.1159,3.1175,3.1159,3.1155,3.117,3.1156,3.1166,3.1153,3.1164,3.1165,3.1145,3.1151,3.1132,3.1135,3.1124,3.115,3.114,3.1153,3.115,3.1176,3.1174,3.126,3.127,3.1183,3.1184,3.1185,0,3.1217,3.123,3.1215,3.1219,3.1214,3.122,3.1222,3.1198,3.1201,3.1194,3.1204,3.1208,3.1209,3.122,3.1206,3.1209,3.1199,3.1229,3.1199,3.1206,3.12,3.12,3.1201,3.1235,3.1236,3.1237,3.1238,0,3.1288,3.1278,3.1281,3.1281,3.1284,3.1283,3.128,3.1284,3.1259,3.1264,3.1269,3.1271,3.1274,3.1278,3.1277,3.1271,3.1251,3.1247,3.1253,3.126,3.1267,3.1265,3.117,3.1245,3.1245,3.1244,3.1244,3.1243,3.1344,3.1354,3.1345,3.135,3.1345,3.1343,3.1351,3.134,3.1344,3.1344,3.133,3.1339,3.1332,3.1329,3.1325,3.1332,3.1318,3.1326,3.1328,3.1331,3.1335,3.1266,3.1331,3.1331,3.1331,3.1331,3.133,0,3.1415,3.1408,3.1412,3.1409,3.1412,3.1392,3.1388,3.1393,3.1401,3.1395,3.1398,3.1405,3.1409,3.1395,3.1398,3.1406,3.1397,3.1407,3.1407,3.1406,3.1347,3.1342,3.1415,3.1415,3.1415,3.1415,3.1415,3.1415,3.1452,3.1469,3.1458,3.1473,3.1465,3.1473,3.1473,3.1471,3.1467,3.1476,3.1479,3.147,3.1462,3.1464,3.1467,3.1463,3.1465,3.1479,3.1472,3.1418,3.141,3.1402,3.1397,3.148,3.148,3.153,3.1531,3.1531]}]]